Regional Weather Roundup
Issued by NWS San Diego, CA

Home | Current Version | Previous Version | Text Only | Print | Product List | Glossary On
Versions: 1 2 3 4 5 6 7 8 9 10 11 12 13 14 15 16 17 18 19 20 21 22 23 24 25 26 27 28 29 30 31 32 33 34 35 36 37 38 39 40 41 42 43 44 45 46 47 48 49 50
000
ASUS46 KSGX 261911
RWRSGX

SAN DIEGO HOURLY WEATHER ROUNDUP
NATIONAL WEATHER SERVICE SAN DIEGO CA
1200 PM PDT WED JUL 26 2017

NOTE: "FAIR" INDICATES FEW OR NO CLOUDS BELOW 12,000 FEET WITH NO
SIGNIFICANT WEATHER AND/OR OBSTRUCTIONS TO VISIBILITY.

CAZ042-043-060-061-PZZ750-775-262000-

GREATER SAN DIEGO AREA

CITY           SKY/WX    TMP DP  RH WIND       PRES   REMARKS
SAN DIEGO AP   PTSUNNY   76  66  71 W12       30.01S
NATIONAL CITY    N/A     76  69  77 SW6       30.01R
CHULA VISTA      N/A     78  69  76 W12       29.91S
IMPERIAL BEACH MOSUNNY   74  65  73 NW16      30.00S
BROWN FIELD    SUNNY     79  67  66 W9        30.00R
MIRAMAR MCAS   MOSUNNY   83  65  54 W8        30.00S
MONTGOMERY FLD MOSUNNY   80  66  62 W5        30.00S
GILLESPIE FLD  MOSUNNY   84  64  51 VRB6      29.98F

$$

NORTH SAN DIEGO COUNTY

CITY           SKY/WX    TMP DP  RH WIND       PRES   REMARKS
CAMP PENDLETON MOSUNNY   70  63  78 SW10      29.98S
OCEANSIDE AP   MOSUNNY   78  67  68 SW10      29.98F
OCEANSIDE HBR    N/A     73  68  84 SW6       30.01F
VISTA            N/A     79  69  71 CALM      29.95F
CARLSBAD       MOSUNNY   75  67  76 W7        29.99S
DEL MAR          N/A     74  68  82 CALM      30.01S
LA JOLLA SCRIP   N/A     71  69  92 W2        29.99S
FALLBROOK        N/A     82  70  67 S3        29.98F
ESCONDIDO        N/A     86  70  59 CALM      29.98F
SAN MARCOS       N/A     82  69  66 NW12      30.00S
POWAY            N/A     85  69  57 CALM      29.98F

$$

EAST SAN DIEGO COUNTY

CITY           SKY/WX    TMP DP  RH WIND       PRES   REMARKS
RAMONA         SUNNY     86  67  52 W6        30.01F
SANTEE LAKES     N/A     84  69  61 SW1       29.95F
LA MESA          N/A     80  67  65 W8        29.91F
JAMUL            N/A     84  69  60 CALM      29.97S
DESCANSO N       N/A     86  66  52 W6        29.88S
CAMPO            N/A     91  61  36 SW13      30.01F

$$

ORANGE COUNTY AND THE LOS ANGELES BASIN

CITY           SKY/WX    TMP DP  RH WIND       PRES   REMARKS
JOHN WAYNE AP  MOSUNNY   78  64  61 VRB6      29.99F
LAKE FOREST FR   N/A     82  63  52 W3        29.86F
HUNTINGTON BCH   N/A     75  67  76 SW9       30.01F
LOS ALAMITOS   SUNNY     79  64  61 SW9       29.98F
FULLERTON      SUNNY     83  64  52 SW8       29.97F
LONG BEACH     SUNNY     78  64  61 S8        29.99F
L.A. AP        MOSUNNY   74  64  71 W12       30.00F
L.A. DOWNTOWN  SUNNY     81  64  56 W5        29.98F

$$

THE INLAND EMPIRE

CITY           SKY/WX    TMP DP  RH WIND       PRES   REMARKS
CORONA         SUNNY     86  65  49 W9        29.98F
CHINO          MOSUNNY   92  63  38 SW8       29.99F
ONTARIO        MOSUNNY   86  60  41 W6        29.99F
RIVERSIDE AP   SUNNY     86  62  44 VRB5      29.98F
MORENO VALLEY    N/A     92  67  43 W7        28.12F HX  95
MARCH ARB      SUNNY     90  62  38 NW10      30.00F
HORSETHIEF CYN   N/A     86  58  38 NE9       29.96F
PERRIS           N/A     91  64  41 NW6       29.98F
HEMET EAST       N/A     87  59  38 SW3       30.00F
FRENCH VALLEY  FAIR      88  64  45 S6        30.00F
TEMECULA         N/A     85  67  54 W3        30.04S

$$

SAN BERNARDINO AND RIVERSIDE COUNTY MOUNTAINS

CITY           SKY/WX    TMP DP  RH WIND       PRES   REMARKS
BIG BEAR AP    PTSUNNY   72  52  49 NW7       30.36R
ANGELUS OAKS     N/A     80  60  50 CALM      29.85F
PINE COVE        N/A     78  58  49 CALM      29.93F

$$

SOUTHERN DESERT INCLUDING THE COACHELLA VALLEY

CITY           SKY/WX    TMP DP  RH WIND       PRES   REMARKS
PALM SPRINGS   SUNNY    103  49  16 SE6       29.93F HX  99
THOUSAND PALMS   N/A    101  56  22 E3        29.88F HX  99
PALM DESERT      N/A    103  59  23 CALM        N/A  HX 104
THERMAL        SUNNY    103  53  19 SE6       29.86F HX 101
BLYTHE         SUNNY    102  43  13 S6        29.91F HX  97
IMPERIAL AP    SUNNY     98  66  34 SW5       29.88F HX 101
EL CENTRO NAS  MOSUNNY   98  58  26 NE3       29.90F HX  97
YUMA AZ        MOSUNNY  103  45  14 S10G18    29.90F HX  99
MEXICALI       SUNNY     99  57  25 E5        29.89  HX  97

$$

UPPER DESERT

CITY           SKY/WX    TMP DP  RH WIND       PRES   REMARKS
VICTORVILLE AP MOSUNNY   93  54  26 SE7       30.07F
HESPERIA         N/A     96  61  31 E2        30.00F HX  96
PALMDALE       SUNNY     94  58  29 MISG      30.05F
LANCASTER      SUNNY     94  55  26 VRB3      30.03F
EDWARDS AFB    MOSUNNY   93  55  26 NE8       30.02F
DAGGETT        SUNNY     96  57  27 NE10      30.00F HX  95
29 PALMS N     MOSUNNY   97  45  16 SE8       30.08F
NEEDLES        SUNNY    100  64  30 CALM      29.96F HX 102

$$

REGIONAL REPORTS

CITY           SKY/WX    TMP DP  RH WIND       PRES   REMARKS
SANTA BARBARA  SUNNY     72  61  68 SW9       30.01S
SANDBERG       SUNNY     88  55  32 S14G21    30.21S
LAS VEGAS NV   MOSUNNY   89  65  44 SE6       30.07F
PHOENIX AZ     MOSUNNY  102  59  24 VRB5      29.95F HX 102
TIJUANA        SUNNY     77  66  69 W12       30.02S
ENSENADA NW      N/A     74  32  21 W14       29.97S

$$

OFFSHORE ISLANDS

CITY           SKY/WX    TMP DP  RH WIND       PRES   REMARKS
CATALINA ARPT  SUNNY     69  62  78 SW9       30.05S
SAN CLEMENTE I CLOUDY    69  59  70 W9        30.04F
SAN NICOLAS IS FAIR      69  60  73 SW12      30.04S

$$

MARINE AND OFFSHORE BUOY REPORTS

STATION/POSITION SKY/WX   TEMP    WIND        PRES    VSBY  SWELL
                          AIR SEA DIR/SP/G                  HT/PER/DIR
                          (F)     (DEG/KT/KT) (MB)    (MI)  (FT/S/D)
TANNER BANKS               63 65  290/  6/  8 1017.1F         3/300/10
S CLEMENTE BASIN              70  280/ 10/ 12 1016.4S         2/180/12
SAN NICOLAS IS.               67                N/A           2/240/11
SO. S. ROSA ISLA           61 62  280/ 10/ 12 1017.0F         3/290/ 9
W. S. BARBARA CH           61 63  290/ 14/ 16 1016.6F         3/300/10
M. S. BARBARA CH           63 66  260/ 12/ 16 1017.4F         2/260/ 8
S. MONICA BASIN               72  250/  8/ 10 1016.4F         2/200/11
S PEDRO CHANNEL               68                N/A           2/170/11
CMP PENDLETON NS              76                N/A           2/210/15
OCEANSIDE OFFSHR              75                N/A           2/200/13
TORREY PINES OTR              74                N/A           2/190/12
SAN DIEGO BAY                 77              1016.1R
POINT LOMA SOUTH              70                N/A           2/200/13

$$





USA.gov is the U.S. government's official web portal to all federal, state and local government web resources and services.